Burlington, VT

10:39 AM EST on November 24, 2017 (GMT -0500)
Burlington International

Weather History for KBTV - November, 2012

Change the Weather History Date:

Sunday, November 4, 2012

  Actual Average Record
Temperature  
Mean Temperature 38 °F 42 °F  
Max Temperature 40 °F 50 °F 73 °F (1982)
Min Temperature 36 °F 34 °F 20 °F (2013)
Degree Days  
Heating Degree Days 27 23  
Month to date heating degree days 90 90  
Since 1 July heating degree days 603 831  
Cooling Degree Days 0 0  
Month to date cooling degree days 0 0  
Year to date cooling degree days 747 491  
Moisture  
Dew Point 28 °F    
Average Humidity 69    
Maximum Humidity 85    
Minimum Humidity 52    
Precipitation  
Precipitation 0.01 in 0.11 in 1.35 in (1927)
Month to date precipitation 0.26 0.46  
Year to date precipitation 31.66 31.77  
Snow  
Snow 0.00 in 0.10 in 2.00 in (1936)
Month to date snowfall T 0.3  
Since 1 July snowfall T 0.6  
Since 1 September snowfall T 0.6  
Snow Depth 0.00 in    
Sea Level Pressure  
Sea Level Pressure 29.98 in    
Wind  
Wind Speed 9 mph (NW)    
Max Wind Speed 16 mph    
Max Gust Speed 20 mph    
Visibility 10 miles    
Events Rain    
T = Trace of Precipitation, MM = Missing Value Source: NWS Daily Summary

Daily Weather History Graph

Daily Weather History Graph

Search for Another Location

Airport or City:

Trip Planner

Search our weather history database for the weather conditions in past years. The results will help you decide how hot, cold, wet, or windy it might be!

Date:

Astronomy

Nov. 04, 2012 Rise Set
Actual Time 6:34 AM EST 4:37 PM EST
Civil Twilight 6:04 AM EST 5:07 PM EST
Nautical Twilight 5:29 AM EST 5:42 PM EST
Astronomical Twilight 4:55 AM EST 6:16 PM EST
Moon 9:10 PM EST (11/4) 11:19 AM EST (11/4)
Length of Visible Light 11h 03m
Length of Day
10h 02m
Waning Gibbous, 72% of the Moon is Illuminated
Nov 4
Waning Gibbous
Nov 6
Last Quarter
Nov 13
New
Nov 20
First Quarter
Nov 28
Full

Hourly Weather History & Observations

Time (EST) Temp. Windchill Dew Point Humidity Pressure Visibility Wind Dir Wind Speed Gust Speed Precip Events Conditions
12:54 AM 39.0 °F 35.7 °F 36.0 °F 89% 29.91 in 8.0 mi NW 4.6 mph - 0.00 in Rain Light Rain
1:54 AM 39.0 °F 35.7 °F 35.1 °F 86% 29.91 in 9.0 mi North 4.6 mph - 0.01 in Rain Light Rain
1:54 AM 39.2 °F 35.9 °F 35.6 °F 87% 29.91 in 10.0 mi NNW 4.6 mph - N/A Rain Light Rain
2:54 AM 39.0 °F 32.8 °F 32.0 °F 76% 29.92 in 10.0 mi NW 9.2 mph - 0.00 in   Overcast
3:54 AM 39.0 °F 32.8 °F 30.9 °F 73% 29.93 in 10.0 mi WNW 9.2 mph - N/A   Overcast
4:54 AM 37.9 °F 31.5 °F 30.9 °F 76% 29.95 in 10.0 mi NW 9.2 mph - N/A   Overcast
5:54 AM 37.9 °F 32.1 °F 30.0 °F 73% 29.96 in 10.0 mi WNW 8.1 mph - N/A   Overcast
6:54 AM 37.9 °F 32.1 °F 28.9 °F 70% 29.98 in 10.0 mi WNW 8.1 mph - N/A   Overcast
7:54 AM 37.9 °F 31.5 °F 28.9 °F 70% 29.99 in 10.0 mi WNW 9.2 mph - N/A   Mostly Cloudy
8:54 AM 39.0 °F 31.4 °F 28.9 °F 67% 29.99 in 10.0 mi NW 12.7 mph 19.6 mph N/A   Mostly Cloudy
9:15 AM 39.2 °F 32.5 °F 28.4 °F 65% 29.97 in 10.0 mi NW 10.4 mph - N/A   Mostly Cloudy
9:36 AM 39.2 °F 31.6 °F 28.4 °F 65% 29.97 in 10.0 mi NNW 12.7 mph - N/A   Mostly Cloudy
9:54 AM 39.0 °F 31.8 °F 30.0 °F 70% 29.97 in 10.0 mi NNW 11.5 mph 18.4 mph N/A   Mostly Cloudy
10:54 AM 39.0 °F 31.4 °F 28.9 °F 67% 29.97 in 10.0 mi NNW 12.7 mph - 0.00 in   Mostly Cloudy
11:54 AM 37.9 °F 31.5 °F 30.0 °F 73% 29.97 in 10.0 mi North 9.2 mph - N/A   Overcast
12:54 PM 39.0 °F 32.3 °F 28.9 °F 67% 29.97 in 10.0 mi NNW 10.4 mph - N/A   Overcast
1:54 PM 37.9 °F 30.9 °F 28.0 °F 68% 29.97 in 10.0 mi NNW 10.4 mph - N/A   Overcast
2:54 PM 37.9 °F 30.9 °F 28.0 °F 68% 29.98 in 10.0 mi NNW 10.4 mph - N/A   Overcast
3:54 PM 37.0 °F 28.5 °F 28.0 °F 70% 30.00 in 10.0 mi NNW 13.8 mph - N/A   Overcast
4:54 PM 36.0 °F 28.0 °F 27.0 °F 70% 30.01 in 10.0 mi NNW 11.5 mph - N/A   Overcast
5:17 PM 37.4 °F 28.9 °F 24.8 °F 60% 30.00 in 10.0 mi NNW 13.8 mph - N/A   Overcast
5:54 PM 36.0 °F 28.5 °F 24.1 °F 62% 30.03 in 10.0 mi NNW 10.4 mph - N/A   Overcast
6:54 PM 36.0 °F 29.0 °F 23.0 °F 59% 30.02 in 10.0 mi NW 9.2 mph - N/A   Overcast
7:54 PM 37.0 °F 29.8 °F 23.0 °F 57% 30.02 in 10.0 mi NW 10.4 mph - N/A   Overcast
8:54 PM 37.0 °F 31.0 °F 23.0 °F 57% 30.03 in 10.0 mi NW 8.1 mph - N/A   Overcast
9:54 PM 37.0 °F 31.6 °F 21.9 °F 54% 30.03 in 10.0 mi NW 6.9 mph - N/A   Overcast
10:54 PM 36.0 °F 30.3 °F 23.0 °F 59% 30.03 in 10.0 mi NW 6.9 mph - N/A   Overcast